,,,PA_Meas_PMT16A,,PR_Meas_QMR101_102,,RH_Meas_QMH101,,SR_Meas_QMS101,,TA_Meas_QMH101,,GenWind,,GenWind,
date,time,status,PA,status,PR,status,RH,status,SR,status,TA,status,DirAvg,status,SpdAvg,
2008-11-15, 00:00:04,VALID,1002.8,VALID,0,VALID,87.9457,VALID,0,VALID,25.7109,VALID,12,VALID,0.527734,
2008-11-15, 00:01:04,VALID,1002.81,VALID,0,VALID,88.0831,VALID,0,VALID,25.7304,VALID,12,VALID,0.371875,
2008-11-15, 00:02:04,VALID,1002.76,VALID,0,VALID,87.8389,VALID,0,VALID,25.67,VALID,18,VALID,0.597266,
2008-11-15, 00:03:04,VALID,1002.76,VALID,0,VALID,87.5643,VALID,0,VALID,25.7109,VALID,34,VALID,0.589453,
2008-11-15, 00:04:04,VALID,1002.71,VALID,0,VALID,86.9921,VALID,0,VALID,25.8083,VALID,50,VALID,1.27773,
2008-11-15, 00:05:04,VALID,1002.7,VALID,0,VALID,86.9998,VALID,0,VALID,25.9057,VALID,23,VALID,0.399609,
2008-11-15, 00:06:04,VALID,1002.7,VALID,0,VALID,86.6412,VALID,0,VALID,25.8863,VALID,22,VALID,0.589063,
2008-11-15, 00:07:04,VALID,1002.65,VALID,0,VALID,86.7785,VALID,0,VALID,25.8863,VALID,16,VALID,0.34375,
2008-11-15, 00:08:04,VALID,1002.64,VALID,0,VALID,86.6641,VALID,0,VALID,25.8473,VALID,14,VALID,0.316406,
2008-11-15, 00:09:04,VALID,1002.63,VALID,0,VALID,86.9464,VALID,0.100563,VALID,25.8453,VALID,14,VALID,0.414063,
2008-11-15, 00:10:04,VALID,1002.6,VALID,0,VALID,86.9082,VALID,0,VALID,25.8064,VALID,324,VALID,0.360156,
2008-11-15, 00:11:04,VALID,1002.54,VALID,0,VALID,87.1676,VALID,0,VALID,25.7869,VALID,292,VALID,0.838672,
2008-11-15, 00:12:04,VALID,1002.52,VALID,0,VALID,87.7169,VALID,0,VALID,25.7674,VALID,307,VALID,0.371094,
2008-11-15, 00:13:04,VALID,1002.52,VALID,0,VALID,87.9762,VALID,0,VALID,25.709,VALID,307,VALID,0.337109,
2008-11-15, 00:14:04,VALID,1002.47,VALID,0,VALID,88.2661,VALID,0,VALID,25.6486,VALID,307,VALID,0.233594,
2008-11-15, 00:15:04,VALID,1002.44,VALID,0,VALID,88.5408,VALID,0,VALID,25.5921,VALID,310,VALID,0.455469,
2008-11-15, 00:16:04,VALID,1002.43,VALID,0,VALID,88.8993,VALID,0,VALID,25.5337,VALID,334,VALID,0.0808594,
2008-11-15, 00:17:04,VALID,1002.42,VALID,0,VALID,89.235,VALID,0,VALID,25.4753,VALID,334,VALID,0.35625,
2008-11-15, 00:18:04,VALID,1002.38,VALID,0,VALID,89.6546,VALID,0,VALID,25.3974,VALID,334,VALID,0.320313,
2008-11-15, 00:19:04,VALID,1002.41,VALID,0,VALID,89.9826,VALID,0,VALID,25.3195,VALID,335,VALID,0.509375,
2008-11-15, 00:20:04,VALID,1002.37,VALID,0,VALID,90.2115,VALID,0,VALID,25.2806,VALID,341,VALID,0.0324219,
2008-11-15, 00:21:04,VALID,1002.36,VALID,0,VALID,90.4175,VALID,0.100563,VALID,25.2611,VALID,341,VALID,0.0746094,
2008-11-15, 00:22:04,VALID,1002.33,VALID,0,VALID,90.7989,VALID,0,VALID,25.2221,VALID,352,VALID,0.45625,
2008-11-15, 00:23:04,VALID,1002.34,VALID,0,VALID,90.9897,VALID,0.100563,VALID,25.1637,VALID,5,VALID,0.698047,
2008-11-15, 00:24:04,VALID,1002.27,VALID,0,VALID,91.0888,VALID,0,VALID,25.0839,VALID,5,VALID,0.225391,
2008-11-15, 00:25:04,VALID,1002.26,VALID,0,VALID,91.3482,VALID,0.100563,VALID,25.0644,VALID,5,VALID,0.465625,
2008-11-15, 00:26:04,VALID,1002.22,VALID,0,VALID,91.5008,VALID,0,VALID,25.0469,VALID,5,VALID,0.358203,
2008-11-15, 00:27:04,VALID,1002.21,VALID,0,VALID,91.6305,VALID,0,VALID,25.0274,VALID,5,VALID,0.353125,
2008-11-15, 00:28:04,VALID,1002.21,VALID,0,VALID,91.6839,VALID,0,VALID,24.9885,VALID,5,VALID,0.361719,
2008-11-15, 00:29:04,VALID,1002.18,VALID,0,VALID,91.7983,VALID,0,VALID,24.9495,VALID,5,VALID,0.246094,
2008-11-15, 00:30:04,VALID,1002.18,VALID,0,VALID,91.9356,VALID,0,VALID,24.93,VALID,5,VALID,0.183984,
2008-11-15, 00:31:04,VALID,1002.17,VALID,0,VALID,92.0653,VALID,0,VALID,24.9106,VALID,5,VALID,0.0078125,
2008-11-15, 00:32:04,VALID,1002.16,VALID,0,VALID,92.1798,VALID,0,VALID,24.9106,VALID,5,VALID,0.164063,
2008-11-15, 00:33:04,VALID,1002.15,VALID,0,VALID,92.3018,VALID,0,VALID,24.9106,VALID,5,VALID,0,
2008-11-15, 00:34:04,VALID,1002.11,VALID,0,VALID,92.2637,VALID,0,VALID,24.8892,VALID,5,VALID,0.0929687,
2008-11-15, 00:35:04,VALID,1002.14,VALID,0,VALID,92.3247,VALID,0,VALID,24.9125,VALID,5,VALID,0,
2008-11-15, 00:36:04,VALID,1002.14,VALID,0,VALID,92.3552,VALID,0,VALID,24.9125,VALID,5,VALID,0,
2008-11-15, 00:37:04,VALID,1002.1,VALID,0,VALID,92.5765,VALID,0,VALID,24.8911,VALID,5,VALID,0,
2008-11-15, 00:38:04,VALID,1002.12,VALID,0,VALID,92.6985,VALID,0,VALID,24.8892,VALID,5,VALID,0.491406,
2008-11-15, 00:39:04,VALID,1002.1,VALID,0,VALID,92.8053,VALID,0,VALID,24.8911,VALID,5,VALID,0.391406,
2008-11-15, 00:40:04,VALID,1002.07,VALID,0,VALID,92.874,VALID,0.100563,VALID,24.8911,VALID,6,VALID,0.233984,
2008-11-15, 00:41:04,VALID,1002.06,VALID,0,VALID,92.8358,VALID,0.100563,VALID,24.8503,VALID,6,VALID,0.211719,
2008-11-15, 00:42:04,VALID,1002.04,VALID,0,VALID,92.8511,VALID,0,VALID,24.8503,VALID,6,VALID,0,
2008-11-15, 00:43:04,VALID,1002.03,VALID,0,VALID,92.8206,VALID,0.100563,VALID,24.8522,VALID,6,VALID,0,
2008-11-15, 00:44:04,VALID,1002.02,VALID,0,VALID,92.8664,VALID,0,VALID,24.8327,VALID,6,VALID,0,
2008-11-15, 00:45:04,VALID,1001.99,VALID,0,VALID,92.8587,VALID,0.100563,VALID,24.8132,VALID,6,VALID,0,
2008-11-15, 00:46:04,VALID,1001.97,VALID,0,VALID,92.8892,VALID,0,VALID,24.7937,VALID,6,VALID,0,
2008-11-15, 00:47:04,VALID,1001.97,VALID,0,VALID,92.9961,VALID,0,VALID,24.7743,VALID,6,VALID,0.237891,
2008-11-15, 00:48:04,VALID,1001.95,VALID,0,VALID,93.0189,VALID,0.100563,VALID,24.7335,VALID,6,VALID,0,
2008-11-15, 00:49:04,VALID,1001.91,VALID,0,VALID,93.0952,VALID,0.100563,VALID,24.7335,VALID,6,VALID,0,
2008-11-15, 00:50:04,VALID,1001.9,VALID,0,VALID,93.1257,VALID,0,VALID,24.7353,VALID,6,VALID,0,
2008-11-15, 00:51:04,VALID,1001.92,VALID,0,VALID,93.1715,VALID,0,VALID,24.7159,VALID,6,VALID,0.126953,
2008-11-15, 00:52:04,VALID,1001.9,VALID,0,VALID,93.1029,VALID,0.100563,VALID,24.675,VALID,6,VALID,0,
2008-11-15, 00:53:04,VALID,1001.9,VALID,0,VALID,93.1563,VALID,0,VALID,24.6556,VALID,6,VALID,0,
2008-11-15, 00:54:04,VALID,1001.89,VALID,0,VALID,93.2402,VALID,0,VALID,24.6788,VALID,6,VALID,0,
2008-11-15, 00:55:04,VALID,1001.9,VALID,0,VALID,93.2478,VALID,0,VALID,24.6574,VALID,6,VALID,0,
2008-11-15, 00:56:04,VALID,1001.91,VALID,0,VALID,93.2478,VALID,0,VALID,24.6574,VALID,6,VALID,0.252344,
2008-11-15, 00:57:04,VALID,1001.91,VALID,0,VALID,93.1181,VALID,0,VALID,24.638,VALID,6,VALID,0.283984,
2008-11-15, 00:58:04,VALID,1001.92,VALID,0,VALID,93.0952,VALID,0,VALID,24.599,VALID,6,VALID,0.275,
2008-11-15, 00:59:04,VALID,1001.94,VALID,0,VALID,93.0571,VALID,0,VALID,24.6009,VALID,6,VALID,0.312109,
2008-11-15, 01:00:04,VALID,1001.94,VALID,0,VALID,93.1181,VALID,0,VALID,24.5425,VALID,6,VALID,0.292578,
2008-11-15, 01:01:04,VALID,1001.94,VALID,0,VALID,93.2173,VALID,0,VALID,24.5017,VALID,6,VALID,0.209766,
2008-11-15, 01:02:04,VALID,1001.94,VALID,0,VALID,93.3165,VALID,0,VALID,24.5035,VALID,6,VALID,0.172656,
2008-11-15, 01:03:04,VALID,1001.93,VALID,0,VALID,93.3851,VALID,0,VALID,24.4822,VALID,6,VALID,0.183203,
2008-11-15, 01:04:04,VALID,1001.94,VALID,0,VALID,93.469,VALID,0,VALID,24.4433,VALID,6,VALID,0.414453,
2008-11-15, 01:05:04,VALID,1001.94,VALID,0,VALID,93.5758,VALID,0,VALID,24.4451,VALID,6,VALID,0.302734,
2008-11-15, 01:06:04,VALID,1001.96,VALID,0,VALID,93.6216,VALID,0,VALID,24.4043,VALID,6,VALID,0.235938,
2008-11-15, 01:07:04,VALID,1001.94,VALID,0,VALID,93.6903,VALID,0,VALID,24.3849,VALID,6,VALID,0,
2008-11-15, 01:08:04,VALID,1001.93,VALID,0,VALID,93.7055,VALID,0,VALID,24.3673,VALID,6,VALID,0,
2008-11-15, 01:09:04,VALID,1001.91,VALID,0,VALID,93.7513,VALID,0,VALID,24.3459,VALID,6,VALID,0,
2008-11-15, 01:10:04,VALID,1001.94,VALID,0,VALID,93.7818,VALID,0,VALID,24.3265,VALID,6,VALID,0,
2008-11-15, 01:11:04,VALID,1001.94,VALID,0,VALID,93.82,VALID,0,VALID,24.3265,VALID,6,VALID,0.0117188,
2008-11-15, 01:12:04,VALID,1001.95,VALID,0,VALID,93.8734,VALID,0,VALID,24.2875,VALID,6,VALID,0,
2008-11-15, 01:13:04,VALID,1001.95,VALID,0,VALID,93.9268,VALID,0,VALID,24.2681,VALID,6,VALID,0,
2008-11-15, 01:14:04,VALID,1001.96,VALID,0,VALID,93.9878,VALID,0,VALID,24.2681,VALID,6,VALID,0,
2008-11-15, 01:15:04,VALID,1001.95,VALID,0,VALID,94.0107,VALID,0,VALID,24.2894,VALID,6,VALID,0,
2008-11-15, 01:16:04,VALID,1001.94,VALID,0,VALID,94.0946,VALID,0,VALID,24.2486,VALID,6,VALID,0,
2008-11-15, 01:17:04,VALID,1001.91,VALID,0,VALID,94.1556,VALID,0,VALID,24.2486,VALID,6,VALID,0,
2008-11-15, 01:18:04,VALID,1001.93,VALID,0,VALID,94.148,VALID,0,VALID,24.2291,VALID,6,VALID,0,
2008-11-15, 01:19:04,VALID,1001.92,VALID,0,VALID,94.1785,VALID,0,VALID,24.2504,VALID,6,VALID,0,
2008-11-15, 01:20:04,VALID,1001.91,VALID,0,VALID,94.1938,VALID,0,VALID,24.2097,VALID,37,VALID,0.269531,
2008-11-15, 01:21:04,VALID,1001.89,VALID,0,VALID,94.2472,VALID,0,VALID,24.2097,VALID,38,VALID,0.333203,
2008-11-15, 01:22:04,VALID,1001.85,VALID,0,VALID,94.2624,VALID,0,VALID,24.2097,VALID,38,VALID,0.19375,
2008-11-15, 01:23:04,VALID,1001.82,VALID,0,VALID,94.2777,VALID,0,VALID,24.1902,VALID,38,VALID,0.255859,
2008-11-15, 01:24:04,VALID,1001.83,VALID,0,VALID,94.3235,VALID,0,VALID,24.1902,VALID,38,VALID,0.364844,
2008-11-15, 01:25:04,VALID,1001.79,VALID,0,VALID,94.3769,VALID,0,VALID,24.1902,VALID,38,VALID,0.470313,
2008-11-15, 01:26:04,VALID,1001.78,VALID,0,VALID,94.354,VALID,0,VALID,24.192,VALID,38,VALID,0.410156,
2008-11-15, 01:27:04,VALID,1001.77,VALID,0,VALID,94.3921,VALID,0,VALID,24.1513,VALID,38,VALID,0.329688,
2008-11-15, 01:28:04,VALID,1001.74,VALID,0,VALID,94.3998,VALID,0,VALID,24.1318,VALID,19,VALID,0.573828,
2008-11-15, 01:29:04,VALID,1001.71,VALID,0,VALID,94.4837,VALID,0,VALID,24.1513,VALID,5,VALID,0.506641,
2008-11-15, 01:30:04,VALID,1001.69,VALID,0,VALID,94.4837,VALID,0,VALID,24.1513,VALID,345,VALID,0.603516,
2008-11-15, 01:31:04,VALID,1001.65,VALID,0,VALID,94.56,VALID,0,VALID,24.1707,VALID,345,VALID,0.587109,
2008-11-15, 01:32:04,VALID,1001.6,VALID,0,VALID,94.6439,VALID,0,VALID,24.1902,VALID,345,VALID,0.567578,
2008-11-15, 01:33:04,VALID,1001.54,VALID,0,VALID,94.682,VALID,0,VALID,24.2291,VALID,346,VALID,0.598437,
2008-11-15, 01:34:04,VALID,1001.57,VALID,0,VALID,94.5371,VALID,0,VALID,24.2291,VALID,353,VALID,0.604297,
2008-11-15, 01:35:04,VALID,1001.52,VALID,0,VALID,94.4989,VALID,0,VALID,24.2291,VALID,3,VALID,0.559375,
2008-11-15, 01:36:04,VALID,1001.48,VALID,0,VALID,94.4761,VALID,0,VALID,24.2486,VALID,3,VALID,0.683594,
2008-11-15, 01:37:04,VALID,1001.49,VALID,0,VALID,94.4608,VALID,0,VALID,24.2699,VALID,349,VALID,0.804688,
2008-11-15, 01:38:04,VALID,1001.45,VALID,0,VALID,94.5066,VALID,0,VALID,24.2486,VALID,352,VALID,0.782812,
2008-11-15, 01:39:04,VALID,1001.4,VALID,0,VALID,94.4837,VALID,0,VALID,24.2504,VALID,353,VALID,0.672656,
2008-11-15, 01:40:04,VALID,1001.4,VALID,0,VALID,94.4532,VALID,0,VALID,24.2699,VALID,352,VALID,0.613281,
2008-11-15, 01:41:04,VALID,1001.4,VALID,0,VALID,94.4227,VALID,0,VALID,24.2504,VALID,354,VALID,0.481641,
2008-11-15, 01:42:04,VALID,1001.37,VALID,0,VALID,94.3692,VALID,0,VALID,24.2097,VALID,352,VALID,0.460156,
2008-11-15, 01:43:04,VALID,1001.33,VALID,0,VALID,94.4303,VALID,0,VALID,24.1902,VALID,350,VALID,0.346094,
2008-11-15, 01:44:04,VALID,1001.31,VALID,0,VALID,94.415,VALID,0,VALID,24.1902,VALID,350,VALID,0.321875,
2008-11-15, 01:45:04,VALID,1001.32,VALID,0,VALID,94.4303,VALID,0,VALID,24.1494,VALID,350,VALID,0.319531,
2008-11-15, 01:46:04,VALID,1001.33,VALID,0,VALID,94.4761,VALID,0,VALID,24.1494,VALID,350,VALID,0.207813,
2008-11-15, 01:47:04,VALID,1001.38,VALID,0,VALID,94.4913,VALID,0,VALID,24.1707,VALID,350,VALID,0.164453,
2008-11-15, 01:48:04,VALID,1001.39,VALID,0,VALID,94.5676,VALID,0,VALID,24.192,VALID,350,VALID,0.261719,
2008-11-15, 01:49:04,VALID,1001.41,VALID,0,VALID,94.5905,VALID,0,VALID,24.1707,VALID,350,VALID,0.245312,
2008-11-15, 01:50:04,VALID,1001.42,VALID,0,VALID,94.5829,VALID,0,VALID,24.2115,VALID,350,VALID,0.284375,
2008-11-15, 01:51:04,VALID,1001.45,VALID,0,VALID,94.5981,VALID,0,VALID,24.1902,VALID,350,VALID,0.237891,
2008-11-15, 01:52:04,VALID,1001.46,VALID,0,VALID,94.5981,VALID,0,VALID,24.1707,VALID,350,VALID,0.0867188,
2008-11-15, 01:53:04,VALID,1001.48,VALID,0,VALID,94.5905,VALID,0,VALID,24.1707,VALID,350,VALID,0,
2008-11-15, 01:54:04,VALID,1001.48,VALID,0,VALID,94.6439,VALID,0,VALID,24.192,VALID,350,VALID,0,
2008-11-15, 01:55:04,VALID,1001.48,VALID,0,VALID,94.6591,VALID,0,VALID,24.1707,VALID,350,VALID,0,
2008-11-15, 01:56:04,VALID,1001.45,VALID,0,VALID,94.6668,VALID,0,VALID,24.1902,VALID,350,VALID,0,
2008-11-15, 01:57:04,VALID,1001.44,VALID,0,VALID,94.6286,VALID,0,VALID,24.1707,VALID,350,VALID,0,
2008-11-15, 01:58:04,VALID,1001.46,VALID,0,VALID,94.6286,VALID,0,VALID,24.1707,VALID,350,VALID,0,
2008-11-15, 01:59:04,VALID,1001.47,VALID,0,VALID,94.5981,VALID,0,VALID,24.1707,VALID,350,VALID,0.216406,
2008-11-15, 02:00:04,VALID,1001.49,VALID,0,VALID,94.5981,VALID,0,VALID,24.1726,VALID,350,VALID,0.53125,
2008-11-15, 02:01:04,VALID,1001.48,VALID,0,VALID,94.5371,VALID,0,VALID,24.1123,VALID,352,VALID,0.545313,
2008-11-15, 02:02:04,VALID,1001.47,VALID,0,VALID,94.5371,VALID,0,VALID,24.0929,VALID,355,VALID,0.513672,
2008-11-15, 02:03:04,VALID,1001.48,VALID,0,VALID,94.5676,VALID,0,VALID,24.0734,VALID,355,VALID,0.538281,
2008-11-15, 02:04:04,VALID,1001.44,VALID,0,VALID,94.6057,VALID,0,VALID,24.0345,VALID,355,VALID,0.44375,
2008-11-15, 02:05:04,VALID,1001.48,VALID,0,VALID,94.6134,VALID,0,VALID,24.0345,VALID,355,VALID,0.624219,
2008-11-15, 02:06:04,VALID,1001.44,VALID,0,VALID,94.682,VALID,0,VALID,24.0345,VALID,355,VALID,0.467969,
2008-11-15, 02:07:04,VALID,1001.4,VALID,0,VALID,94.7736,VALID,0,VALID,24.0557,VALID,355,VALID,0.537891,
2008-11-15, 02:08:04,VALID,1001.37,VALID,0,VALID,94.8499,VALID,0,VALID,24.0557,VALID,355,VALID,0.390234,
2008-11-15, 02:09:04,VALID,1001.35,VALID,0,VALID,94.9185,VALID,0,VALID,24.0539,VALID,355,VALID,0.45,
2008-11-15, 02:10:04,VALID,1001.34,VALID,0,VALID,94.8651,VALID,0,VALID,24.0947,VALID,355,VALID,0.422266,
2008-11-15, 02:11:04,VALID,1001.37,VALID,0,VALID,94.7812,VALID,0,VALID,24.0734,VALID,355,VALID,0.600781,
2008-11-15, 02:12:04,VALID,1001.37,VALID,0,VALID,94.7202,VALID,0,VALID,24.0557,VALID,355,VALID,0.601563,
2008-11-15, 02:13:04,VALID,1001.36,VALID,0,VALID,94.7583,VALID,0,VALID,24.015,VALID,355,VALID,0.379687,
2008-11-15, 02:14:04,VALID,1001.4,VALID,0,VALID,94.7736,VALID,0,VALID,24.0363,VALID,355,VALID,0.586328,
2008-11-15, 02:15:04,VALID,1001.41,VALID,0,VALID,94.7888,VALID,0,VALID,24.0363,VALID,355,VALID,0.579687,
2008-11-15, 02:16:04,VALID,1001.4,VALID,0,VALID,94.827,VALID,0,VALID,24.015,VALID,355,VALID,0.470703,
2008-11-15, 02:17:04,VALID,1001.4,VALID,0,VALID,94.9033,VALID,0,VALID,24.015,VALID,355,VALID,0.499609,
2008-11-15, 02:18:04,VALID,1001.42,VALID,0,VALID,94.9185,VALID,0,VALID,24.0345,VALID,355,VALID,0.475781,
2008-11-15, 02:19:04,VALID,1001.44,VALID,0,VALID,94.9033,VALID,0,VALID,24.0345,VALID,355,VALID,0.503125,
2008-11-15, 02:20:04,VALID,1001.46,VALID,0,VALID,94.888,VALID,0,VALID,24.0363,VALID,355,VALID,0.36875,
2008-11-15, 02:21:04,VALID,1001.49,VALID,0,VALID,94.9109,VALID,0,VALID,24.015,VALID,355,VALID,0.415234,
2008-11-15, 02:22:04,VALID,1001.51,VALID,0,VALID,94.8651,VALID,0,VALID,24.015,VALID,355,VALID,0.312109,
2008-11-15, 02:23:04,VALID,1001.52,VALID,0,VALID,94.888,VALID,0,VALID,23.9955,VALID,355,VALID,0.314844,
2008-11-15, 02:24:04,VALID,1001.53,VALID,0,VALID,94.8728,VALID,0,VALID,24.0168,VALID,355,VALID,0.246094,
2008-11-15, 02:25:04,VALID,1001.56,VALID,0,VALID,94.9185,VALID,0,VALID,23.9955,VALID,355,VALID,0.0207031,
2008-11-15, 02:26:04,VALID,1001.59,VALID,0,VALID,94.9109,VALID,0,VALID,24.0168,VALID,355,VALID,0.0105469,
2008-11-15, 02:27:04,VALID,1001.57,VALID,0,VALID,94.8956,VALID,0,VALID,24.0168,VALID,355,VALID,0.0230469,
2008-11-15, 02:28:04,VALID,1001.61,VALID,0,VALID,94.949,VALID,0,VALID,24.015,VALID,355,VALID,0.323047,
2008-11-15, 02:29:04,VALID,1001.63,VALID,0,VALID,94.9796,VALID,0,VALID,24.0539,VALID,21,VALID,0.576563,
2008-11-15, 02:30:04,VALID,1001.61,VALID,0,VALID,94.9719,VALID,0,VALID,24.0734,VALID,23,VALID,0.610547,
2008-11-15, 02:31:04,VALID,1001.58,VALID,0,VALID,94.9338,VALID,0,VALID,24.0947,VALID,23,VALID,0.630469,
2008-11-15, 02:32:04,VALID,1001.59,VALID,0,VALID,95.0177,VALID,0,VALID,24.1318,VALID,19,VALID,0.463281,
2008-11-15, 02:33:04,VALID,1001.53,VALID,0,VALID,94.8194,VALID,0,VALID,24.1336,VALID,15,VALID,0.426953,
2008-11-15, 02:34:04,VALID,1001.51,VALID,0,VALID,94.7888,VALID,0,VALID,24.1336,VALID,10,VALID,0.539063,
2008-11-15, 02:35:04,VALID,1001.49,VALID,0,VALID,94.8575,VALID,0,VALID,24.1513,VALID,17,VALID,0.596875,
2008-11-15, 02:36:04,VALID,1001.48,VALID,0,VALID,94.7278,VALID,0,VALID,24.192,VALID,17,VALID,0.363281,
2008-11-15, 02:37:04,VALID,1001.46,VALID,0,VALID,94.7507,VALID,0,VALID,24.1902,VALID,17,VALID,0.462891,
2008-11-15, 02:38:04,VALID,1001.46,VALID,0,VALID,94.7507,VALID,0,VALID,24.2681,VALID,17,VALID,0.294531,
2008-11-15, 02:39:04,VALID,1001.48,VALID,0,VALID,94.7049,VALID,0,VALID,24.307,VALID,20,VALID,0.501953,
2008-11-15, 02:40:04,VALID,1001.47,VALID,0,VALID,94.6286,VALID,0,VALID,24.3673,VALID,22,VALID,0.457422,
2008-11-15, 02:41:04,VALID,1001.49,VALID,0,VALID,94.5295,VALID,0,VALID,24.3673,VALID,48,VALID,0.353125,
2008-11-15, 02:42:04,VALID,1001.48,VALID,0,VALID,94.4455,VALID,0,VALID,24.3849,VALID,59,VALID,0.400391,
2008-11-15, 02:43:04,VALID,1001.49,VALID,0,VALID,94.3464,VALID,0,VALID,24.4043,VALID,59,VALID,0.312109,
2008-11-15, 02:44:04,VALID,1001.47,VALID,0,VALID,94.2777,VALID,0,VALID,24.4257,VALID,59,VALID,0.207031,
2008-11-15, 02:45:04,VALID,1001.47,VALID,0,VALID,94.1938,VALID,0,VALID,24.4043,VALID,59,VALID,0,
2008-11-15, 02:46:04,VALID,1001.44,VALID,0,VALID,94.1556,VALID,0,VALID,24.4238,VALID,59,VALID,0,
2008-11-15, 02:47:04,VALID,1001.44,VALID,0,VALID,94.1022,VALID,0,VALID,24.4238,VALID,59,VALID,0.226563,
2008-11-15, 02:48:04,VALID,1001.4,VALID,0,VALID,94.0946,VALID,0,VALID,24.4646,VALID,59,VALID,0.356641,
2008-11-15, 02:49:04,VALID,1001.4,VALID,0,VALID,94.0412,VALID,0,VALID,24.4841,VALID,59,VALID,0.209375,
2008-11-15, 02:50:04,VALID,1001.41,VALID,0,VALID,94.0031,VALID,0,VALID,24.5017,VALID,59,VALID,0.491406,
2008-11-15, 02:51:04,VALID,1001.39,VALID,0,VALID,93.8429,VALID,0,VALID,24.5017,VALID,78,VALID,0.571875,
2008-11-15, 02:52:04,VALID,1001.42,VALID,0,VALID,93.7437,VALID,0,VALID,24.5017,VALID,92,VALID,0.550391,
2008-11-15, 02:53:04,VALID,1001.41,VALID,0,VALID,93.6521,VALID,0,VALID,24.4628,VALID,92,VALID,0.477734,
2008-11-15, 02:54:04,VALID,1001.41,VALID,0,VALID,93.6292,VALID,0,VALID,24.4451,VALID,92,VALID,0.482422,
2008-11-15, 02:55:04,VALID,1001.4,VALID,0,VALID,93.6598,VALID,0,VALID,24.3849,VALID,92,VALID,0.684766,
2008-11-15, 02:56:04,VALID,1001.45,VALID,0,VALID,93.6826,VALID,0,VALID,24.3849,VALID,92,VALID,0.516797,
2008-11-15, 02:57:04,VALID,1001.45,VALID,0,VALID,93.7361,VALID,0,VALID,24.3459,VALID,92,VALID,0.426953,
2008-11-15, 02:58:04,VALID,1001.47,VALID,0,VALID,93.7666,VALID,0,VALID,24.3459,VALID,92,VALID,0.461719,
2008-11-15, 02:59:04,VALID,1001.45,VALID,0,VALID,93.8123,VALID,0,VALID,24.3459,VALID,92,VALID,0.379297,
2008-11-15, 03:00:04,VALID,1001.43,VALID,0,VALID,93.8276,VALID,0,VALID,24.3673,VALID,92,VALID,0.415234,
2008-11-15, 03:01:04,VALID,1001.41,VALID,0,VALID,93.8276,VALID,0,VALID,24.3459,VALID,90,VALID,0.613281,
2008-11-15, 03:02:04,VALID,1001.38,VALID,0,VALID,93.8657,VALID,0,VALID,24.3849,VALID,80,VALID,0.192188,
2008-11-15, 03:03:04,VALID,1001.36,VALID,0,VALID,93.7055,VALID,0,VALID,24.3849,VALID,80,VALID,0.105078,
2008-11-15, 03:04:04,VALID,1001.33,VALID,0,VALID,93.6445,VALID,0,VALID,24.4062,VALID,80,VALID,0,
2008-11-15, 03:05:04,VALID,1001.34,VALID,0,VALID,93.6064,VALID,0,VALID,24.3849,VALID,80,VALID,0.278516,
2008-11-15, 03:06:04,VALID,1001.33,VALID,0,VALID,93.5682,VALID,0,VALID,24.3867,VALID,80,VALID,0.269922,
2008-11-15, 03:07:04,VALID,1001.35,VALID,0,VALID,93.5758,VALID,0,VALID,24.3654,VALID,80,VALID,0.240625,
2008-11-15, 03:08:04,VALID,1001.32,VALID,0,VALID,93.5453,VALID,0,VALID,24.3459,VALID,80,VALID,0.313281,
2008-11-15, 03:09:04,VALID,1001.35,VALID,0,VALID,93.5606,VALID,0,VALID,24.3459,VALID,80,VALID,0.186719,
2008-11-15, 03:10:04,VALID,1001.34,VALID,0,VALID,93.5758,VALID,0.100563,VALID,24.3265,VALID,80,VALID,0.125,
2008-11-15, 03:11:04,VALID,1001.37,VALID,0,VALID,93.5758,VALID,0.100563,VALID,24.307,VALID,81,VALID,0.651563,
2008-11-15, 03:12:04,VALID,1001.38,VALID,0,VALID,93.614,VALID,0,VALID,24.2681,VALID,81,VALID,0.360938,
2008-11-15, 03:13:04,VALID,1001.39,VALID,0,VALID,93.6826,VALID,0,VALID,24.2486,VALID,81,VALID,0.371484,
2008-11-15, 03:14:04,VALID,1001.39,VALID,0,VALID,93.7589,VALID,0,VALID,24.2097,VALID,81,VALID,0.334766,
2008-11-15, 03:15:04,VALID,1001.37,VALID,0,VALID,93.8352,VALID,0,VALID,24.1902,VALID,82,VALID,0.148438,
2008-11-15, 03:16:04,VALID,1001.35,VALID,0,VALID,93.881,VALID,0,VALID,24.1902,VALID,82,VALID,0.410937,
2008-11-15, 03:17:04,VALID,1001.34,VALID,0,VALID,93.9649,VALID,0,VALID,24.1707,VALID,82,VALID,0.227344,
2008-11-15, 03:18:04,VALID,1001.35,VALID,0,VALID,93.881,VALID,0,VALID,24.1513,VALID,82,VALID,0.208984,
2008-11-15, 03:19:04,VALID,1001.32,VALID,0,VALID,93.9191,VALID,0,VALID,24.1123,VALID,82,VALID,0,
2008-11-15, 03:20:04,VALID,1001.33,VALID,0,VALID,93.9573,VALID,0,VALID,24.1123,VALID,82,VALID,0.311719,
2008-11-15, 03:21:04,VALID,1001.33,VALID,0,VALID,93.9802,VALID,0,VALID,24.0947,VALID,82,VALID,0.304297,
2008-11-15, 03:22:04,VALID,1001.33,VALID,0,VALID,94.0336,VALID,0,VALID,24.0734,VALID,82,VALID,0.242578,
2008-11-15, 03:23:04,VALID,1001.32,VALID,0,VALID,94.0717,VALID,0,VALID,24.0539,VALID,82,VALID,0,
2008-11-15, 03:24:04,VALID,1001.32,VALID,0,VALID,94.1251,VALID,0,VALID,24.0345,VALID,82,VALID,0,
2008-11-15, 03:25:04,VALID,1001.34,VALID,0,VALID,94.1633,VALID,0,VALID,24.0345,VALID,82,VALID,0.0191406,
2008-11-15, 03:26:04,VALID,1001.33,VALID,0,VALID,94.2014,VALID,0,VALID,24.015,VALID,82,VALID,0,
2008-11-15, 03:27:04,VALID,1001.37,VALID,0,VALID,94.2167,VALID,0,VALID,24.015,VALID,82,VALID,0,
2008-11-15, 03:28:04,VALID,1001.37,VALID,0,VALID,94.3006,VALID,0,VALID,24.015,VALID,82,VALID,0,
2008-11-15, 03:29:04,VALID,1001.37,VALID,0,VALID,94.4227,VALID,0,VALID,24.0132,VALID,82,VALID,0,
2008-11-15, 03:30:04,VALID,1001.4,VALID,0,VALID,94.4532,VALID,0,VALID,24.0363,VALID,80,VALID,0,
2008-11-15, 03:31:04,VALID,1001.41,VALID,0,VALID,94.5295,VALID,0,VALID,24.0345,VALID,80,VALID,0,
2008-11-15, 03:32:04,VALID,1001.41,VALID,0,VALID,94.5676,VALID,0,VALID,24.0132,VALID,73,VALID,0.4375,
2008-11-15, 03:33:04,VALID,1001.41,VALID,0,VALID,94.6057,VALID,0,VALID,24.0539,VALID,66,VALID,0.443359,
2008-11-15, 03:34:04,VALID,1001.44,VALID,0,VALID,94.6134,VALID,0,VALID,24.0539,VALID,60,VALID,0.490625,
2008-11-15, 03:35:04,VALID,1001.45,VALID,0,VALID,94.6439,VALID,0,VALID,24.0734,VALID,25,VALID,0.328516,
2008-11-15, 03:36:04,VALID,1001.46,VALID,0,VALID,94.5829,VALID,0,VALID,24.0539,VALID,25,VALID,0.090625,
2008-11-15, 03:37:04,VALID,1001.51,VALID,0,VALID,94.5981,VALID,0,VALID,24.0752,VALID,25,VALID,0.365234,
2008-11-15, 03:38:04,VALID,1001.48,VALID,0,VALID,94.5676,VALID,0,VALID,24.0539,VALID,25,VALID,0.358594,
2008-11-15, 03:39:04,VALID,1001.49,VALID,0,VALID,94.5447,VALID,0,VALID,24.0539,VALID,25,VALID,0.395312,
2008-11-15, 03:40:04,VALID,1001.48,VALID,0,VALID,94.4989,VALID,0,VALID,24.0539,VALID,25,VALID,0.285937,
2008-11-15, 03:41:04,VALID,1001.49,VALID,0,VALID,94.5066,VALID,0,VALID,24.0132,VALID,25,VALID,0.348047,
2008-11-15, 03:42:04,VALID,1001.48,VALID,0,VALID,94.5295,VALID,0,VALID,24.0539,VALID,25,VALID,0.229297,
2008-11-15, 03:43:04,VALID,1001.49,VALID,0,VALID,94.5218,VALID,0,VALID,24.0557,VALID,25,VALID,0.0425781,
2008-11-15, 03:44:04,VALID,1001.5,VALID,0,VALID,94.5218,VALID,0,VALID,24.0539,VALID,25,VALID,0,
2008-11-15, 03:45:04,VALID,1001.53,VALID,0,VALID,94.4684,VALID,0,VALID,24.0539,VALID,25,VALID,0,
2008-11-15, 03:46:04,VALID,1001.5,VALID,0,VALID,94.4532,VALID,0,VALID,24.0345,VALID,25,VALID,0,
2008-11-15, 03:47:04,VALID,1001.53,VALID,0,VALID,94.4913,VALID,0,VALID,24.0132,VALID,25,VALID,0,
2008-11-15, 03:48:04,VALID,1001.52,VALID,0,VALID,94.4761,VALID,0,VALID,24.0345,VALID,25,VALID,0.154687,